Location: ČR
(50.0000°N, 15.0000°E)
Time: 15:19:31
(UTC+00:00)

Courier 1B Rocket - All Passes

Search period start: 25 October 2021 00:00
Search period end: 04 November 2021 00:00
Orbit: 920 x 1202 km, 28.2° (Epoch: 24 October)

Date Brightness Start Highest point End Pass type
(mag) Time Alt. Az. Time Alt. Az. Time Alt. Az.
31 Oct - 13:14:49 10° SSW 13:16:21 11° S 13:17:53 10° S daylight
01 Nov - 12:13:54 10° SSW 12:15:42 11° S 12:17:31 10° SSE daylight
02 Nov - 11:13:40 10° S 11:15:02 11° S 11:16:24 10° SSE daylight
02 Nov - 13:05:27 10° SSW 13:07:02 11° S 13:08:36 10° S daylight
03 Nov - 12:03:58 10° SSW 12:06:22 12° S 12:08:45 10° SSE daylight
